Regional Weather Roundup
Issued by NWS Cleveland, OH

Home | Current Version | Previous Version | Graphics & Text | Print | Product List | Glossary On
Versions: 1 2 3 4 5 6 7 8 9 10 11 12 13 14 15 16 17 18 19 20 21 22 23 24 25 26 27 28 29 30 31 32 33 34 35 36 37 38 39 40 41 42 43 44 45 46 47 48 49 50
000
ASUS41 KCLE 020202
RWRCLE
OHIO REGIONAL WEATHER ROUNDUP
NATIONAL WEATHER SERVICE CLEVELAND, OH
1000 PM EDT MON SEP 01 2014

NOTE: "FAIR" INDICATES FEW OR NO CLOUDS BELOW 12,000 FEET WITH NO
SIGNIFICANT WEATHER AND/OR OBSTRUCTIONS TO VISIBILITY.

OHZ001>008-015>018-024>027-034-035-043-044-020300-
   NORTHWEST OHIO

CITY           SKY/WX    TMP DP  RH WIND       PRES   REMARKS
DEFIANCE       PTCLDY    76  69  79 SW7       29.85R
FINDLAY        CLEAR     74  70  87 S7        29.87R
TOLEDO EXPRESS PTCLDY    76  70  82 SW8       29.84R
TOLEDO EXEC    PTCLDY    75  69  81 SW6       29.85R
LIMA           CLEAR     77  69  76 SW10      29.89R
$$

OHZ009>014-019>023-028>033-038-089-020300-
   NORTHEAST OHIO

CITY           SKY/WX    TMP DP  RH WIND       PRES   REMARKS
CLE-HOPKINS    MOCLDY    78  69  73 SW9       29.90R
CLE-LAKEFRONT  CLOUDY    81  69  67 SW15      29.86R
CUY CO. ARPT   MOCLDY    79  72  78 SW14      29.89R
LORAIN-ELYRIA  MOCLDY    80  69  69 SW9       29.89R
ASHTABULA      CLOUDY    77  69  76 S10       29.90R
AKRON-CANTON   MOCLDY    77  69  76 S9        29.92R
WOOSTER        MOCLDY    75  71  87 S8        29.93R
MANSFIELD      MOCLDY    77  70  79 SW12      29.92R
YOUNGSTOWN     CLOUDY    76  69  79 S7        29.93R
$$

OHZ042-051>053-060>062-070>072-077>081-020300-
  SOUTHWEST OHIO

CITY           SKY/WX    TMP DP  RH WIND       PRES   REMARKS
CINC-COVINGTON MOCLDY    78  69  73 SW9       29.95R
CINC-LUNKEN    PTCLDY    78  70  76 S8        29.94R
HAMILTON       PTCLDY    76  72  87 VRB3      29.95R
DAYTON         PTCLDY    77  70  79 SW12      29.95R
WRIGHT-PAT AFB CLEAR     77  72  83 SW9       29.93R
DAYTON GENERAL CLEAR     76  71  85 SW6       29.94R
WILMINGTON     PTCLDY    74  70  87 SW8       29.95S
$$

OHZ036-037-039>041-045>050-054>059-063>069-073>076-082>088-020300-
  CENTRAL AND SOUTHEAST OHIO

CITY           SKY/WX    TMP DP  RH WIND       PRES   REMARKS
COLUMBUS       LGT RAIN  79  71  76 SW8       29.93R
OSU AIRPORT    PTCLDY    76  70  82 S8        29.93R
BOLTON FIELD   MOCLDY    75  72  90 SW9       29.95R
RICKENBACK AFB CLOUDY    76  67  75 S8        29.93S
NEWARK         MOCLDY    75  70  84 S6        29.94R
MARION         MOCLDY    76  70  82 SW9       29.91R
LANCASTER      MOCLDY    76  70  82 S6        29.95R
ZANESVILLE     MOCLDY    74  69  85 S7        29.96R
NEW PHILLY     MOCLDY    74  71  91 S6        29.95R
$$



USA.gov is the U.S. government's official web portal to all federal, state and local government web resources and services.